| time (UTC) | temp C | wind direction | speed KPH | gust KPH | rain 1hr cm | rain 24hr cm | rain mn cm | humidity % | barometer mb |
| 20260504023508 | 3 | 278 | 3.2 | 4.8 | 319.79 | 0.00 | 0.00 | 81 | 1010.2 |
| 20260504023008 | 3 | 274 | 3.2 | 4.8 | 319.79 | 0.00 | 0.00 | 81 | 1010.2 |
| 20260504022508 | 3 | 294 | 3.2 | 4.8 | 319.79 | 0.00 | 0.00 | 79 | 1010.1 |
| 20260504022008 | 3 | 280 | 3.2 | 4.8 | 319.79 | 0.00 | 0.00 | 79 | 1010.1 |
| 20260504021508 | 3 | 287 | 3.2 | 4.8 | 319.79 | 0.00 | 0.00 | 79 | 1010.2 |
| 20260504021008 | 3 | 283 | 4.8 | 4.8 | 319.79 | 0.00 | 0.00 | 78 | 1010.1 |
| 20260504020508 | 3 | 269 | 3.2 | 4.8 | 319.79 | 0.00 | 0.00 | 77 | 1010.1 |
| 20260504020009 | 4 | 276 | 0.0 | 3.2 | 319.79 | 0.00 | 0.00 | 76 | 1010.2 |
| 20260504015508 | 4 | 276 | 3.2 | 3.2 | 319.79 | 0.00 | 0.00 | 75 | 1010.0 |
| 20260504015008 | 4 | 290 | 3.2 | 3.2 | 319.79 | 0.00 | 0.00 | 72 | 1010.0 |
| 20260504014508 | 4 | 301 | 3.2 | 4.8 | 319.79 | 0.00 | 0.00 | 72 | 1010.0 |
| 20260504014008 | 5 | 276 | 3.2 | 4.8 | 319.79 | 0.00 | 0.00 | 71 | 1010.0 |
| 20260504013508 | 5 | 283 | 3.2 | 4.8 | 319.79 | 0.00 | 0.00 | 70 | 1010.0 |
| 20260504013010 | 5 | 276 | 3.2 | 3.2 | 319.79 | 0.00 | 0.00 | 69 | 1009.9 |
| 20260504012508 | 5 | 0 | 0.0 | 0.0 | 319.79 | 0.00 | 0.00 | 65 | 1009.9 |
| 20260504012008 | 5 | 0 | 0.0 | 0.0 | 319.79 | 0.00 | 0.00 | 64 | 1009.8 |
| 20260504011508 | 5 | 0 | 0.0 | 0.0 | 319.79 | 0.00 | 0.00 | 65 | 1009.7 |
| 20260504011008 | 6 | 0 | 0.0 | 0.0 | 319.79 | 0.00 | 0.00 | 62 | 1009.7 |
| 20260504010508 | 6 | 0 | 0.0 | 0.0 | 319.79 | 0.00 | 0.00 | 63 | 1009.6 |
| 20260504010009 | 6 | 0 | 0.0 | 0.0 | 319.79 | 0.00 | 0.00 | 61 | 1009.6 |
| 20260504005508 | 6 | 0 | 0.0 | 0.0 | 319.79 | 0.00 | 0.00 | 60 | 1009.6 |
| 20260504005008 | 6 | 0 | 0.0 | 0.0 | 319.79 | 0.00 | 0.00 | 60 | 1009.4 |
| 20260504004508 | 7 | 0 | 0.0 | 0.0 | 319.79 | 0.00 | 0.00 | 59 | 1009.4 |
| 20260504003508 | 7 | 0 | 0.0 | 0.0 | 319.79 | 0.00 | 0.00 | 56 | 1009.2 |
| 20260504003008 | 7 | 0 | 0.0 | 0.0 | 319.79 | 0.00 | 0.00 | 55 | 1009.2 |
| 20260504002508 | 7 | 0 | 0.0 | 0.0 | 319.79 | 0.00 | 0.00 | 54 | 1009.2 |
| 20260504002008 | 7 | 0 | 0.0 | 0.0 | 319.79 | 0.00 | 0.00 | 53 | 1009.1 |
| 20260504001508 | 8 | 0 | 0.0 | 0.0 | 319.79 | 0.00 | 0.00 | 54 | 1009.0 |
| 20260504001008 | 8 | 0 | 0.0 | 0.0 | 319.79 | 0.00 | 0.00 | 53 | 1008.9 |
| 20260504000508 | 8 | 0 | 0.0 | 0.0 | 319.79 | 0.00 | 0.00 | 51 | 1009.0 |
| 20260504000008 | 9 | 0 | 0.0 | 0.0 | 319.79 | 0.00 | 0.00 | 50 | 1008.9 |
| 20260503235508 | 9 | 0 | 0.0 | 0.0 | 319.79 | 0.00 | 0.00 | 49 | 1008.9 |
| 20260503235008 | 9 | 0 | 0.0 | 0.0 | 319.79 | 0.00 | 0.00 | 49 | 1008.9 |
| 20260503234508 | 10 | 1 | 0.0 | 3.2 | 319.79 | 0.00 | 0.00 | 48 | 1008.8 |
| 20260503234008 | 10 | 280 | 0.0 | 9.7 | 319.79 | 0.00 | 0.00 | 46 | 1008.8 |
| 20260503233507 | 10 | 262 | 3.2 | 11.3 | 319.79 | 0.00 | 0.00 | 44 | 1008.8 |
| 20260503233008 | 10 | 278 | 1.6 | 8.0 | 319.79 | 0.00 | 0.00 | 45 | 1008.7 |
| 20260503232008 | 10 | 304 | 4.8 | 11.3 | 319.79 | 0.00 | 0.00 | 43 | 1008.6 |
| 20260503231508 | 10 | 284 | 4.8 | 9.7 | 319.79 | 0.00 | 0.00 | 42 | 1008.6 |
| 20260503231007 | 10 | 287 | 0.0 | 14.5 | 319.79 | 0.00 | 0.00 | 43 | 1008.5 |
| 20260503230508 | 10 | 281 | 6.4 | 16.1 | 319.79 | 0.00 | 0.00 | 41 | 1008.5 |
| 20260503230008 | 10 | 267 | 9.7 | 20.9 | 319.79 | 0.00 | 0.00 | 42 | 1008.4 |
| 20260503225008 | 10 | 271 | 9.7 | 14.5 | 319.79 | 0.00 | 0.00 | 41 | 1008.4 |
| 20260503224508 | 10 | 280 | 4.8 | 22.5 | 319.79 | 0.00 | 0.00 | 40 | 1008.4 |
| 20260503224007 | 11 | 269 | 12.9 | 22.5 | 319.79 | 0.00 | 0.00 | 40 | 1008.3 |
| 20260503223507 | 11 | 269 | 9.7 | 24.1 | 319.79 | 0.00 | 0.00 | 39 | 1008.2 |
| 20260503223008 | 11 | 293 | 4.8 | 14.5 | 319.79 | 0.00 | 0.00 | 39 | 1008.2 |
| 20260503222507 | 11 | 297 | 11.3 | 19.3 | 319.79 | 0.00 | 0.00 | 38 | 1008.1 |
| 20260503222007 | 11 | 255 | 8.0 | 20.9 | 319.79 | 0.00 | 0.00 | 39 | 1007.9 |
| 20260503221508 | 11 | 255 | 4.8 | 37.0 | 319.79 | 0.00 | 0.00 | 40 | 1007.9 |
| 20260503221007 | 11 | 329 | 8.0 | 12.9 | 319.79 | 0.00 | 0.00 | 41 | 1008.0 |
| 20260503220012 | 11 | 293 | 3.2 | 19.3 | 319.79 | 0.00 | 0.00 | 39 | 1007.9 |
| 20260503215007 | 11 | 281 | 6.4 | 20.9 | 319.79 | 0.00 | 0.00 | 38 | 1007.7 |
| 20260503214509 | 11 | 307 | 6.4 | 30.6 | 319.79 | 0.00 | 0.00 | 41 | 1007.7 |
| 20260503214007 | 11 | 273 | 6.4 | 14.5 | 319.79 | 0.00 | 0.00 | 39 | 1007.6 |
| 20260503213008 | 11 | 293 | 6.4 | 19.3 | 319.79 | 0.00 | 0.00 | 40 | 1007.6 |
| 20260503212507 | 11 | 295 | 9.7 | 29.0 | 319.79 | 0.00 | 0.00 | 39 | 1007.6 |
| 20260503212007 | 11 | 295 | 16.1 | 29.0 | 319.79 | 0.00 | 0.00 | 39 | 1007.5 |
| 20260503211512 | 11 | 300 | 11.3 | 25.7 | 319.79 | 0.00 | 0.00 | 38 | 1007.5 |
| 20260503211007 | 11 | 285 | 16.1 | 38.6 | 319.79 | 0.00 | 0.00 | 39 | 1007.4 |
| 20260503210507 | 11 | 293 | 22.5 | 29.0 | 319.79 | 0.00 | 0.00 | 38 | 1007.3 |
| 20260503210008 | 11 | 280 | 16.1 | 24.1 | 319.79 | 0.00 | 0.00 | 38 | 1007.4 |
| 20260503205507 | 11 | 301 | 9.7 | 29.0 | 319.79 | 0.00 | 0.00 | 40 | 1007.2 |
| 20260503205007 | 11 | 278 | 11.3 | 35.4 | 319.79 | 0.00 | 0.00 | 39 | 1007.1 |
| 20260503204508 | 11 | 277 | 6.4 | 22.5 | 319.79 | 0.00 | 0.00 | 42 | 1007.1 |
| 20260503204007 | 11 | 287 | 6.4 | 17.7 | 319.79 | 0.00 | 0.00 | 43 | 1007.1 |
| 20260503203508 | 11 | 269 | 14.5 | 29.0 | 319.79 | 0.00 | 0.00 | 41 | 1007.0 |
| 20260503203008 | 11 | 281 | 14.5 | 29.0 | 319.79 | 0.00 | 0.00 | 40 | 1007.0 |
| 20260503202507 | 11 | 266 | 16.1 | 22.5 | 319.79 | 0.00 | 0.00 | 40 | 1006.9 |
| 20260503201508 | 11 | 304 | 14.5 | 19.3 | 319.79 | 0.00 | 0.00 | 39 | 1006.8 |
| 20260503201007 | 11 | 287 | 8.0 | 19.3 | 319.79 | 0.00 | 0.00 | 39 | 1006.7 |
| 20260503200507 | 11 | 252 | 11.3 | 14.5 | 319.79 | 0.00 | 0.00 | 39 | 1006.6 |
| 20260503200008 | 11 | 297 | 8.0 | 20.9 | 319.79 | 0.00 | 0.00 | 40 | 1006.6 |
| 20260503195507 | 11 | 288 | 8.0 | 17.7 | 319.79 | 0.00 | 0.00 | 39 | 1006.6 |
| 20260503195007 | 11 | 295 | 14.5 | 33.8 | 319.79 | 0.00 | 0.00 | 39 | 1006.6 |
| 20260503194512 | 11 | 293 | 14.5 | 29.0 | 319.79 | 0.00 | 0.00 | 38 | 1006.6 |
| 20260503194007 | 11 | 253 | 11.3 | 30.6 | 319.79 | 0.00 | 0.00 | 39 | 1006.6 |
| 20260503193008 | 11 | 211 | 9.7 | 19.3 | 319.79 | 0.00 | 0.00 | 40 | 1006.7 |
| 20260503192507 | 11 | 274 | 11.3 | 41.8 | 319.79 | 0.00 | 0.00 | 39 | 1006.7 |
| 20260503192007 | 11 | 318 | 20.9 | 35.4 | 319.79 | 0.00 | 0.00 | 39 | 1006.6 |
| 20260503191508 | 11 | 283 | 11.3 | 24.1 | 319.79 | 0.00 | 0.00 | 40 | 1006.6 |
| 20260503191007 | 11 | 281 | 8.0 | 16.1 | 319.79 | 0.00 | 0.00 | 42 | 1006.7 |
| 20260503190507 | 11 | 270 | 8.0 | 19.3 | 319.79 | 0.00 | 0.00 | 44 | 1006.7 |
| 20260503190008 | 11 | 302 | 9.7 | 22.5 | 319.79 | 0.00 | 0.00 | 43 | 1006.7 |
| 20260503185507 | 11 | 240 | 6.4 | 16.1 | 319.79 | 0.00 | 0.00 | 44 | 1006.7 |
| 20260503185007 | 11 | 302 | 4.8 | 17.7 | 319.79 | 0.00 | 0.00 | 47 | 1006.7 |
| 20260503184508 | 11 | 291 | 8.0 | 9.7 | 319.79 | 0.00 | 0.00 | 49 | 1006.7 |
| 20260503184007 | 10 | 281 | 4.8 | 19.3 | 319.79 | 0.00 | 0.00 | 47 | 1006.7 |
| 20260503183507 | 10 | 248 | 9.7 | 16.1 | 319.79 | 0.00 | 0.00 | 47 | 1006.7 |
| 20260503183008 | 11 | 328 | 3.2 | 12.9 | 319.79 | 0.00 | 0.00 | 50 | 1006.8 |
| 20260503182507 | 11 | 263 | 4.8 | 19.3 | 319.79 | 0.00 | 0.00 | 49 | 1006.7 |
| 20260503181508 | 11 | 338 | 6.4 | 11.3 | 319.79 | 0.00 | 0.00 | 46 | 1006.7 |
| 20260503181007 | 11 | 253 | 6.4 | 19.3 | 319.79 | 0.00 | 0.00 | 48 | 1006.7 |
| 20260503180508 | 11 | 18 | 11.3 | 14.5 | 319.79 | 0.00 | 0.00 | 43 | 1006.7 |
| 20260503180009 | 11 | 325 | 9.7 | 16.1 | 319.79 | 0.00 | 0.00 | 42 | 1006.6 |
| 20260503175507 | 11 | 267 | 4.8 | 19.3 | 319.79 | 0.00 | 0.00 | 47 | 1006.7 |
| 20260503175008 | 11 | 266 | 8.0 | 14.5 | 319.79 | 0.00 | 0.00 | 45 | 1006.7 |
| 20260503174508 | 11 | 270 | 6.4 | 14.5 | 319.79 | 0.00 | 0.00 | 48 | 1006.7 |
| 20260503174007 | 11 | 352 | 4.8 | 8.0 | 319.79 | 0.00 | 0.00 | 48 | 1006.6 |
| 20260503173507 | 10 | 256 | 4.8 | 20.9 | 319.79 | 0.00 | 0.00 | 50 | 1006.6 |
| 20260503173008 | 10 | 278 | 11.3 | 14.5 | 319.79 | 0.00 | 0.00 | 47 | 1006.7 |
| 20260503172507 | 10 | 294 | 4.8 | 14.5 | 319.79 | 0.00 | 0.00 | 48 | 1006.8 |
| 20260503172007 | 10 | 255 | 8.0 | 17.7 | 319.79 | 0.00 | 0.00 | 49 | 1006.9 |
| 20260503171511 | 10 | 298 | 8.0 | 22.5 | 319.79 | 0.00 | 0.00 | 49 | 1006.9 |
| 20260503170507 | 10 | 277 | 3.2 | 32.2 | 319.79 | 0.00 | 0.00 | 52 | 1006.9 |
| 20260503151007 | 7 | 295 | 6.4 | 20.9 | 319.79 | 0.00 | 0.00 | 69 | 1007.0 |
| 20260503150507 | 7 | 323 | 8.0 | 16.1 | 319.79 | 0.00 | 0.00 | 69 | 1007.0 |
| 20260503131007 | 7 | 321 | 3.2 | 19.3 | 319.79 | 0.00 | 0.00 | 79 | 1007.3 |
| 20260503130507 | 7 | 318 | 12.9 | 14.5 | 319.79 | 0.00 | 0.00 | 78 | 1007.3 |
| 20260503110507 | 4 | 186 | 0.0 | 3.2 | 319.79 | 0.00 | 0.00 | 93 | 1007.5 |
| 20260503090507 | 5 | 23 | 0.0 | 4.8 | 319.79 | 0.00 | 0.00 | 94 | 1008.0 |
| 20260503081507 | 5 | 271 | 1.6 | 6.4 | 319.79 | 0.00 | 0.00 | 95 | 1008.7 |
| 20260503081006 | 5 | 273 | 0.0 | 4.8 | 319.79 | 0.00 | 0.00 | 95 | 1008.8 |
| 20260503080506 | 5 | 264 | 3.2 | 8.0 | 319.79 | 0.00 | 0.00 | 95 | 1008.8 |
| 20260503072506 | 5 | 271 | 1.6 | 6.4 | 319.79 | 0.00 | 0.00 | 96 | 1009.0 |
| 20260503072006 | 5 | 256 | 3.2 | 3.2 | 319.79 | 0.00 | 0.00 | 96 | 1009.0 |
| 20260503071507 | 5 | 0 | 0.0 | 0.0 | 319.79 | 0.00 | 0.00 | 96 | 1009.0 |
| 20260503071006 | 5 | 297 | 0.0 | 3.2 | 319.79 | 0.00 | 0.00 | 96 | 1009.2 |
| 20260503070506 | 5 | 0 | 1.6 | 0.0 | 319.79 | 0.00 | 0.00 | 96 | 1009.2 |
| 20260503055007 | 6 | 0 | 0.0 | 0.0 | 319.79 | 0.00 | 0.00 | 96 | 1010.2 |
| 20260503054506 | 6 | 263 | 0.0 | 1.6 | 319.79 | 0.00 | 0.00 | 96 | 1010.1 |
| 20260503054006 | 6 | 271 | 1.6 | 3.2 | 319.79 | 0.00 | 0.00 | 96 | 1010.1 |
| 20260503053506 | 6 | 271 | 1.6 | 3.2 | 319.79 | 0.00 | 0.00 | 95 | 1010.1 |
| 20260503053007 | 6 | 277 | 0.0 | 1.6 | 319.79 | 0.00 | 0.00 | 95 | 1010.1 |
| 20260503052506 | 6 | 274 | 1.6 | 4.8 | 319.79 | 0.00 | 0.00 | 95 | 1010.2 |
| 20260503052006 | 6 | 287 | 3.2 | 3.2 | 319.79 | 0.00 | 0.00 | 95 | 1010.4 |
| 20260503051507 | 6 | 288 | 3.2 | 4.8 | 319.79 | 0.00 | 0.00 | 95 | 1010.4 |
| 20260503051006 | 6 | 290 | 1.6 | 4.8 | 319.79 | 0.00 | 0.00 | 94 | 1010.4 |
| 20260503050506 | 6 | 271 | 3.2 | 3.2 | 319.79 | 0.00 | 0.00 | 93 | 1010.6 |
| 20260503050007 | 6 | 276 | 1.6 | 4.8 | 319.79 | 0.00 | 0.00 | 93 | 1010.6 |
| 20260503045507 | 6 | 284 | 3.2 | 3.2 | 319.79 | 0.00 | 0.00 | 92 | 1010.7 |
| 20260503045006 | 6 | 0 | 0.0 | 0.0 | 319.79 | 0.00 | 0.00 | 92 | 1010.7 |
| 20260503044506 | 6 | 0 | 0.0 | 0.0 | 319.79 | 0.00 | 0.00 | 92 | 1010.7 |
| 20260503044006 | 6 | 0 | 0.0 | 0.0 | 319.79 | 0.00 | 0.00 | 91 | 1010.8 |
| 20260503043506 | 6 | 304 | 0.0 | 4.8 | 319.79 | 0.00 | 0.00 | 91 | 1010.9 |
| 20260503043006 | 6 | 0 | 0.0 | 0.0 | 319.79 | 0.00 | 0.00 | 91 | 1010.8 |
| 20260503042508 | 6 | 38 | 0.0 | 1.6 | 319.79 | 0.00 | 0.00 | 90 | 1010.8 |
| 20260503042006 | 6 | 0 | 0.0 | 0.0 | 319.79 | 0.00 | 0.00 | 90 | 1011.0 |
| 20260503041508 | 6 | 0 | 0.0 | 0.0 | 319.79 | 0.00 | 0.00 | 90 | 1011.0 |
| 20260503041006 | 6 | 0 | 0.0 | 0.0 | 319.79 | 0.00 | 0.00 | 91 | 1011.1 |
| 20260503040506 | 6 | 0 | 0.0 | 0.0 | 319.79 | 0.00 | 0.00 | 91 | 1011.0 |
| 20260503040006 | 6 | 329 | 0.0 | 1.6 | 319.79 | 0.00 | 0.00 | 91 | 1011.0 |
| 20260503035506 | 6 | 257 | 0.0 | 4.8 | 319.79 | 0.00 | 0.43 | 92 | 1011.0 |
| 20260503035006 | 6 | 307 | 3.2 | 4.8 | 319.79 | 0.00 | 0.43 | 92 | 1011.0 |
| 20260503034507 | 6 | 311 | 0.0 | 4.8 | 319.79 | 0.00 | 0.43 | 93 | 1011.0 |
| 20260503034006 | 7 | 291 | 1.6 | 4.8 | 319.79 | 0.00 | 0.43 | 95 | 1011.0 |
| 20260503033506 | 6 | 281 | 0.0 | 9.7 | 319.79 | 0.00 | 0.43 | 95 | 1011.2 |
| 20260503033006 | 7 | 295 | 3.2 | 9.7 | 319.79 | 0.00 | 0.43 | 96 | 1011.1 |
| 20260503032506 | 7 | 281 | 1.6 | 8.0 | 319.79 | 0.00 | 0.43 | 97 | 1011.2 |
| 20260503032009 | 7 | 211 | 0.0 | 3.2 | 319.79 | 0.00 | 0.43 | 97 | 1011.1 |
| 20260503031506 | 7 | 0 | 0.0 | 0.0 | 319.79 | 0.00 | 0.43 | 97 | 1011.2 |
| 20260503030506 | 7 | 0 | 0.0 | 0.0 | 319.79 | 0.00 | 0.43 | 97 | 1011.0 |
| 20260503030006 | 7 | 0 | 0.0 | 0.0 | 319.79 | 0.00 | 0.43 | 97 | 1011.1 |
| 20260503025506 | 7 | 0 | 0.0 | 0.0 | 319.79 | 0.00 | 0.43 | 97 | 1011.1 |
| 20260503025005 | 7 | 0 | 0.0 | 0.0 | 319.79 | 0.00 | 0.43 | 97 | 1011.0 |
| 20260503024507 | 7 | 0 | 0.0 | 0.0 | 319.79 | 0.00 | 0.43 | 96 | 1011.0 |
| 20260503024007 | 7 | 239 | 0.0 | 1.6 | 319.79 | 0.00 | 0.43 | 96 | 1010.9 |